Location: Juzet
(42.9779°N, 0.7597°E)
Time: 19:18:29
(UTC+00:00)

Cosmos 1932 - Pass Details

Date: 14 July 2020
Orbit: 922 x 1008 km, 65.0° (Epoch: 12 August)

Event Time Altitude Azimuth Distance (km) Brightness Sun altitude
Exits shadow 01:12:30 49° 198° (SSW) 1,275 4.6 -23.4°
Maximum altitude 01:14:26 80° 121° (ESE) 1,023 4.5 -23.3°
Drops below altitude 10° 01:21:00 10° 36° (NE) 2,791 7.9 -22.9°
Sets 01:23:37 0° 35° (NE) 3,745 8.9 -22.8°
